| time (UTC) | temp C | wind direction | speed KPH | gust KPH | rain 1hr cm | rain 24hr cm | rain mn cm | humidity % | barometer mb |
| 20260506232557 | 10 | 303 | 1.6 | 3.2 | 0.00 | 0.00 | 0.00 | 79 | 1014.5 |
| 20260506231556 | 10 | 297 | 1.6 | 3.2 | 0.00 | 0.00 | 0.00 | 79 | 1014.3 |
| 20260506230555 | 10 | 336 | 3.2 | 3.2 | 0.00 | 0.00 | 0.00 | 78 | 1014.5 |
| 20260506225633 | 10 | 0.0 | 0.0 | 0.00 | 0.00 | 0.00 | 78 | 1014.4 | |
| 20260506224552 | 10 | 0.0 | 1.6 | 0.00 | 0.00 | 0.00 | 77 | 1014.3 | |
| 20260506223631 | 10 | 330 | 3.2 | 6.4 | 0.00 | 0.00 | 0.00 | 77 | 1014.5 |
| 20260506222550 | 10 | 0.0 | 3.2 | 0.00 | 0.00 | 0.00 | 77 | 1014.4 | |
| 20260506221548 | 11 | 0.0 | 1.6 | 0.00 | 0.00 | 0.00 | 78 | 1014.3 | |
| 20260506220547 | 11 | 11 | 3.2 | 4.8 | 0.00 | 0.00 | 0.00 | 79 | 1014.2 |
| 20260506215546 | 11 | 0.0 | 3.2 | 0.00 | 0.00 | 0.00 | 80 | 1014.2 | |
| 20260506214625 | 11 | 337 | 4.8 | 6.4 | 0.00 | 0.00 | 0.00 | 80 | 1014.0 |
| 20260506213545 | 11 | 338 | 1.6 | 1.6 | 0.00 | 0.00 | 0.00 | 80 | 1014.0 |
| 20260506212542 | 11 | 0.0 | 4.8 | 0.00 | 0.00 | 0.00 | 80 | 1014.1 | |
| 20260506211541 | 11 | 0.0 | 1.6 | 0.00 | 0.00 | 0.00 | 79 | 1013.7 | |
| 20260506210540 | 11 | 7 | 3.2 | 4.8 | 0.00 | 0.00 | 0.00 | 78 | 1013.8 |
| 20260506205539 | 11 | 0.0 | 3.2 | 0.00 | 0.00 | 0.00 | 77 | 1013.8 | |
| 20260506204617 | 11 | 355 | 3.2 | 3.2 | 0.00 | 0.00 | 0.00 | 76 | 1013.6 |
| 20260506203616 | 11 | 334 | 3.2 | 3.2 | 0.00 | 0.00 | 0.00 | 75 | 1013.9 |
| 20260506202535 | 11 | 351 | 1.6 | 3.2 | 0.00 | 0.00 | 0.00 | 75 | 1013.6 |
| 20260506201534 | 11 | 0.0 | 1.6 | 0.00 | 0.00 | 0.00 | 75 | 1013.6 | |
| 20260506200533 | 11 | 324 | 3.2 | 3.2 | 0.00 | 0.00 | 0.00 | 74 | 1013.5 |
| 20260506195531 | 11 | 316 | 1.6 | 3.2 | 0.00 | 0.00 | 0.00 | 72 | 1013.5 |
| 20260506194530 | 12 | 0.0 | 0.0 | 0.00 | 0.00 | 0.00 | 70 | 1013.6 | |
| 20260506193529 | 12 | 322 | 3.2 | 3.2 | 0.00 | 0.00 | 0.00 | 70 | 1013.4 |
| 20260506192528 | 12 | 0.0 | 1.6 | 0.00 | 0.00 | 0.00 | 71 | 1013.3 | |
| 20260506191527 | 12 | 110 | 3.2 | 3.2 | 0.00 | 0.00 | 0.00 | 71 | 1013.2 |
| 20260506190525 | 12 | 0.0 | 0.0 | 0.00 | 0.00 | 0.00 | 70 | 1013.0 | |
| 20260506185604 | 12 | 0.0 | 0.0 | 0.00 | 0.00 | 0.00 | 70 | 1013.0 | |
| 20260506184523 | 12 | 0.0 | 0.0 | 0.00 | 0.00 | 0.00 | 70 | 1012.9 | |
| 20260506183521 | 12 | 0.0 | 0.0 | 0.00 | 0.00 | 0.00 | 70 | 1012.7 | |
| 20260506182600 | 12 | 0.0 | 0.0 | 0.00 | 0.00 | 0.00 | 70 | 1012.4 | |
| 20260506181519 | 12 | 0.0 | 1.6 | 0.00 | 0.00 | 0.00 | 69 | 1012.3 | |
| 20260506180558 | 12 | 0.0 | 0.0 | 0.00 | 0.00 | 0.00 | 68 | 1012.2 | |
| 20260506175516 | 12 | 0.0 | 0.0 | 0.00 | 0.00 | 0.00 | 68 | 1012.3 | |
| 20260506174515 | 12 | 127 | 4.8 | 4.8 | 0.00 | 0.00 | 0.00 | 68 | 1012.2 |
| 20260506173554 | 12 | 198 | 1.6 | 4.8 | 0.00 | 0.00 | 0.00 | 67 | 1012.0 |
| 20260506172513 | 13 | 0.0 | 0.0 | 0.00 | 0.00 | 0.00 | 67 | 1011.9 | |
| 20260506171511 | 13 | 143 | 1.6 | 1.6 | 0.00 | 0.00 | 0.00 | 67 | 1012.0 |
| 20260506170510 | 13 | 0.0 | 0.0 | 0.00 | 0.00 | 0.00 | 66 | 1011.8 | |
| 20260506165549 | 13 | 85 | 4.8 | 6.4 | 0.00 | 0.00 | 0.00 | 66 | 1011.9 |
| 20260506164508 | 13 | 0.0 | 1.6 | 0.00 | 0.00 | 0.00 | 65 | 1011.9 | |
| 20260506163507 | 13 | 0.0 | 1.6 | 0.00 | 0.00 | 0.00 | 65 | 1011.9 | |
| 20260506162505 | 13 | 151 | 3.2 | 4.8 | 0.00 | 0.00 | 0.00 | 65 | 1011.9 |
| 20260506161544 | 13 | 101 | 3.2 | 3.2 | 0.00 | 0.00 | 0.00 | 64 | 1011.9 |
| 20260506160503 | 13 | 106 | 6.4 | 9.7 | 0.00 | 0.00 | 0.00 | 64 | 1011.7 |
| 20260506155502 | 13 | 17 | 4.8 | 6.4 | 0.00 | 0.00 | 0.00 | 63 | 1011.9 |
| 20260506154500 | 13 | 324 | 3.2 | 3.2 | 0.00 | 0.00 | 0.00 | 63 | 1011.7 |
| 20260506153459 | 13 | 0.0 | 1.6 | 0.00 | 0.00 | 0.00 | 63 | 1011.7 | |
| 20260506152458 | 13 | 0.0 | 1.6 | 0.00 | 0.00 | 0.00 | 64 | 1011.7 | |
| 20260506151457 | 13 | 0.0 | 1.6 | 0.00 | 0.00 | 0.00 | 64 | 1011.7 | |
| 20260506150455 | 13 | 307 | 1.6 | 1.6 | 0.00 | 0.00 | 0.00 | 63 | 1011.8 |
| 20260506145454 | 13 | 0.0 | 1.6 | 0.00 | 0.00 | 0.00 | 63 | 1011.6 | |
| 20260506144453 | 13 | 0.0 | 3.2 | 0.00 | 0.00 | 0.00 | 63 | 1011.9 | |
| 20260506143451 | 13 | 44 | 3.2 | 4.8 | 0.00 | 0.00 | 0.00 | 63 | 1011.5 |
| 20260506142450 | 13 | 116 | 6.4 | 6.4 | 0.00 | 0.00 | 0.00 | 62 | 1011.8 |
| 20260506141449 | 13 | 0.0 | 6.4 | 0.00 | 0.00 | 0.00 | 60 | 1011.7 | |
| 20260506140448 | 13 | 176 | 3.2 | 4.8 | 0.00 | 0.00 | 0.00 | 59 | 1011.7 |
| 20260506135447 | 14 | 9 | 3.2 | 6.4 | 0.00 | 0.00 | 0.00 | 59 | 1011.6 |
| 20260506134526 | 14 | 0 | 1.6 | 3.2 | 0.00 | 0.00 | 0.00 | 60 | 1011.5 |
| 20260506133445 | 14 | 305 | 3.2 | 4.8 | 0.00 | 0.00 | 0.00 | 58 | 1011.4 |
| 20260506132443 | 15 | 82 | 6.4 | 12.9 | 0.00 | 0.00 | 0.00 | 57 | 1011.5 |
| 20260506131442 | 15 | 329 | 4.8 | 6.4 | 0.00 | 0.00 | 0.00 | 59 | 1011.2 |
| 20260506130441 | 14 | 77 | 1.6 | 3.2 | 0.00 | 0.00 | 0.00 | 63 | 1011.2 |
| 20260506125439 | 14 | 336 | 6.4 | 6.4 | 0.00 | 0.00 | 0.00 | 63 | 1011.1 |
| 20260506124458 | 13 | 71 | 3.2 | 6.4 | 0.00 | 0.00 | 0.00 | 64 | 1011.2 |
| 20260506123517 | 13 | 339 | 6.4 | 6.4 | 0.00 | 0.00 | 0.00 | 69 | 1011.1 |
| 20260506122516 | 13 | 323 | 6.4 | 9.7 | 0.00 | 0.00 | 0.00 | 69 | 1010.8 |
| 20260506121434 | 13 | 346 | 3.2 | 4.8 | 0.00 | 0.00 | 0.00 | 71 | 1010.9 |
| 20260506120433 | 13 | 334 | 8.0 | 8.0 | 0.00 | 0.00 | 0.00 | 71 | 1010.9 |
| 20260506115432 | 13 | 344 | 1.6 | 8.0 | 0.00 | 0.00 | 0.00 | 73 | 1010.9 |
| 20260506114431 | 13 | 326 | 6.4 | 8.0 | 0.00 | 0.00 | 0.00 | 73 | 1010.9 |
| 20260506113429 | 13 | 351 | 6.4 | 9.7 | 0.00 | 0.00 | 0.00 | 73 | 1010.9 |
| 20260506112428 | 13 | 354 | 9.7 | 11.3 | 0.00 | 0.00 | 0.00 | 73 | 1010.9 |
| 20260506111427 | 13 | 297 | 3.2 | 4.8 | 0.00 | 0.00 | 0.00 | 71 | 1010.8 |
| 20260506110426 | 13 | 308 | 9.7 | 9.7 | 0.00 | 0.00 | 0.00 | 69 | 1011.0 |
| 20260506105425 | 14 | 343 | 9.7 | 14.5 | 0.00 | 0.00 | 0.00 | 67 | 1010.9 |
| 20260506104424 | 15 | 23 | 4.8 | 6.4 | 0.00 | 0.00 | 0.00 | 57 | 1010.7 |
| 20260506103422 | 15 | 277 | 3.2 | 4.8 | 0.00 | 0.00 | 0.00 | 58 | 1010.6 |
| 20260506102421 | 15 | 314 | 6.4 | 6.4 | 0.00 | 0.00 | 0.00 | 61 | 1010.5 |
| 20260506101420 | 15 | 349 | 4.8 | 4.8 | 0.00 | 0.00 | 0.00 | 60 | 1010.8 |
| 20260506100419 | 15 | 353 | 1.6 | 3.2 | 0.00 | 0.00 | 0.00 | 62 | 1010.5 |
| 20260506095417 | 16 | 0.0 | 9.7 | 0.00 | 0.00 | 0.00 | 61 | 1010.6 | |
| 20260506094456 | 15 | 25 | 3.2 | 6.4 | 0.00 | 0.00 | 0.00 | 65 | 1010.5 |
| 20260506093415 | 15 | 168 | 1.6 | 6.4 | 0.00 | 0.00 | 0.00 | 63 | 1010.6 |
| 20260506092414 | 15 | 0.0 | 6.4 | 0.00 | 0.00 | 0.00 | 65 | 1010.5 | |
| 20260506091413 | 15 | 338 | 3.2 | 3.2 | 0.00 | 0.00 | 0.00 | 65 | 1010.2 |
| 20260506090411 | 15 | 106 | 6.4 | 9.7 | 0.00 | 0.00 | 0.00 | 67 | 1010.3 |
| 20260506085410 | 15 | 25 | 3.2 | 3.2 | 0.00 | 0.00 | 0.00 | 66 | 1010.4 |
| 20260506084409 | 14 | 307 | 1.6 | 4.8 | 0.00 | 0.00 | 0.00 | 70 | 1010.3 |
| 20260506083407 | 13 | 101 | 3.2 | 4.8 | 0.00 | 0.00 | 0.00 | 71 | 1010.3 |
| 20260506082406 | 13 | 354 | 4.8 | 8.0 | 0.00 | 0.00 | 0.00 | 73 | 1010.2 |
| 20260506081445 | 13 | 314 | 3.2 | 6.4 | 0.00 | 0.00 | 0.00 | 74 | 1010.2 |
| 20260506080404 | 13 | 355 | 9.7 | 11.3 | 0.00 | 0.00 | 0.00 | 80 | 1010.1 |
| 20260506073500 | 12 | 347 | 6.4 | 11.3 | 0.00 | 0.00 | 0.00 | 86 | 1010.0 |
| 20260506072459 | 11 | 348 | 8.0 | 11.3 | 0.00 | 0.00 | 0.00 | 86 | 1010.0 |
| 20260506071458 | 11 | 349 | 14.5 | 16.1 | 0.00 | 0.00 | 0.00 | 86 | 1010.0 |
| 20260506070537 | 11 | 351 | 8.0 | 12.9 | 0.00 | 0.00 | 0.00 | 87 | 1009.8 |
| 20260506061451 | 11 | 340 | 9.7 | 14.5 | 0.00 | 0.00 | 0.00 | 88 | 1009.5 |
| 20260506060449 | 11 | 235 | 3.2 | 6.4 | 0.00 | 0.00 | 0.00 | 88 | 1009.5 |
| 20260506050442 | 10 | 0.0 | 6.4 | 0.00 | 0.00 | 0.00 | 89 | 1009.7 | |
| 20260506044439 | 9 | 344 | 4.8 | 4.8 | 0.00 | 0.00 | 0.00 | 88 | 1009.7 |
| 20260506043438 | 9 | 344 | 9.7 | 9.7 | 0.00 | 0.00 | 0.00 | 88 | 1009.8 |
| 20260506042437 | 9 | 332 | 6.4 | 8.0 | 0.00 | 0.00 | 0.00 | 88 | 1009.7 |
| 20260506041436 | 9 | 302 | 3.2 | 9.7 | 0.00 | 0.00 | 0.00 | 88 | 1009.8 |
| 20260506040435 | 9 | 307 | 4.8 | 4.8 | 0.00 | 0.00 | 0.00 | 88 | 1009.9 |
| 20260506035514 | 9 | 19 | 6.4 | 8.0 | 0.00 | 0.00 | 0.00 | 88 | 1010.0 |
| 20260506034512 | 9 | 348 | 3.2 | 6.4 | 0.00 | 0.00 | 0.00 | 87 | 1009.9 |
| 20260506033431 | 9 | 278 | 3.2 | 3.2 | 0.00 | 0.00 | 0.00 | 87 | 1010.0 |
| 20260506032430 | 9 | 357 | 4.8 | 8.0 | 0.00 | 0.00 | 0.00 | 86 | 1010.1 |
| 20260506031428 | 10 | 358 | 3.2 | 4.8 | 0.00 | 0.00 | 0.00 | 86 | 1010.2 |
| 20260506030427 | 10 | 268 | 3.2 | 6.4 | 0.00 | 0.00 | 0.00 | 85 | 1010.1 |
| 20260506025426 | 10 | 0.0 | 1.6 | 0.00 | 0.00 | 0.00 | 85 | 1010.2 | |
| 20260506024425 | 10 | 0.0 | 4.8 | 0.00 | 0.00 | 0.00 | 85 | 1010.3 | |
| 20260506023423 | 10 | 263 | 1.6 | 6.4 | 0.00 | 0.00 | 0.00 | 84 | 1010.4 |
| 20260506022422 | 10 | 259 | 1.6 | 3.2 | 0.00 | 0.00 | 0.00 | 84 | 1010.3 |
| 20260506021501 | 10 | 348 | 4.8 | 6.4 | 0.00 | 0.00 | 0.00 | 84 | 1010.1 |
| 20260506020420 | 10 | 339 | 1.6 | 4.8 | 0.00 | 0.00 | 0.00 | 85 | 1010.3 |
| 20260506015419 | 10 | 14 | 4.8 | 9.7 | 0.00 | 0.00 | 0.00 | 86 | 1010.2 |
| 20260506014417 | 9 | 0.0 | 3.2 | 0.00 | 0.00 | 0.00 | 87 | 1010.2 | |
| 20260506013416 | 9 | 0.0 | 0.0 | 0.00 | 0.00 | 0.00 | 87 | 1010.2 | |
| 20260506012415 | 9 | 349 | 1.6 | 1.6 | 0.00 | 0.00 | 0.00 | 87 | 1010.4 |
| 20260506011414 | 9 | 334 | 1.6 | 3.2 | 0.00 | 0.00 | 0.00 | 87 | 1010.2 |
| 20260506010413 | 9 | 307 | 6.4 | 8.0 | 0.00 | 0.00 | 0.00 | 86 | 1010.4 |
| 20260506005411 | 9 | 301 | 4.8 | 8.0 | 0.00 | 0.00 | 0.00 | 86 | 1010.5 |
| 20260506004450 | 9 | 349 | 4.8 | 6.4 | 0.00 | 0.00 | 0.00 | 86 | 1010.8 |
| 20260506003409 | 9 | 350 | 6.4 | 6.4 | 0.00 | 0.00 | 0.00 | 85 | 1010.8 |
| 20260506002408 | 9 | 0.0 | 3.2 | 0.00 | 0.00 | 0.00 | 85 | 1010.7 | |
| 20260506001406 | 9 | 332 | 4.8 | 4.8 | 0.00 | 0.00 | 0.00 | 85 | 1010.8 |
| 20260506000405 | 9 | 346 | 11.3 | 11.3 | 0.00 | 0.00 | 0.00 | 84 | 1010.9 |
| 20260505235444 | 9 | 354 | 1.6 | 6.4 | 0.00 | 0.00 | 0.00 | 84 | 1010.9 |
| 20260505234403 | 10 | 346 | 3.2 | 8.0 | 0.00 | 0.00 | 0.00 | 83 | 1010.9 |
| 20260505233402 | 10 | 336 | 3.2 | 4.8 | 0.00 | 0.00 | 0.00 | 83 | 1011.1 |